N145NG VA88-VA88

Flight info

Callsign N145NG
Flight time 0h 8m
Altitude 1200
Route VFR
Aircraft EC45/L-G/C

Departure

Time 2026-05-07 18:01
Airport Sentara Norfolk General Hospital Heliport (VA88)

Arrival

Time 2026-05-07 18:10
Airport Sentara Norfolk General Hospital Heliport (VA88)
Time Latitude Longitude Altitude Speed Heading
2026-05-07 17:59 36.86669 -76.02360 31 ft 0 kts
2026-05-07 18:01 36.86673 -76.02354 72 ft 4 kts
2026-05-07 18:01 36.86766 -76.02288 281 ft 38 kts
2026-05-07 18:01 36.87184 -76.02175 523 ft 80 kts 355°
2026-05-07 18:01 36.87792 -76.02317 722 ft 96 kts 333°
2026-05-07 18:02 36.88738 -76.03478 724 ft 99 kts 291°
2026-05-07 18:02 36.88862 -76.04320 714 ft 100 kts 269°
2026-05-07 18:02 36.88802 -76.05187 713 ft 100 kts 265°
2026-05-07 18:03 36.88765 -76.06058 710 ft 100 kts 268°
2026-05-07 18:03 36.88762 -76.06920 711 ft 101 kts 270°
2026-05-07 18:03 36.88792 -76.07793 709 ft 101 kts 274°
2026-05-07 18:03 36.88858 -76.08664 713 ft 101 kts 276°
2026-05-07 18:04 36.88957 -76.09532 709 ft 101 kts 279°
2026-05-07 18:04 36.89092 -76.10391 711 ft 101 kts 282°
2026-05-07 18:04 36.89261 -76.11240 713 ft 101 kts 284°
2026-05-07 18:04 36.89464 -76.12080 704 ft 101 kts 288°
2026-05-07 18:05 36.89647 -76.12924 709 ft 101 kts 278°
2026-05-07 18:05 36.89648 -76.13805 712 ft 102 kts 265°
2026-05-07 18:05 36.89546 -76.14679 713 ft 101 kts 259°
2026-05-07 18:05 36.89400 -76.15539 713 ft 101 kts 258°
2026-05-07 18:06 36.89237 -76.16390 709 ft 100 kts 256°
2026-05-07 18:06 36.89058 -76.17234 715 ft 100 kts 255°
2026-05-07 18:06 36.88851 -76.18067 711 ft 100 kts 250°
2026-05-07 18:06 36.88521 -76.18823 713 ft 101 kts 236°
2026-05-07 18:07 36.88131 -76.19552 705 ft 101 kts 240°
2026-05-07 18:07 36.87833 -76.20346 711 ft 101 kts 250°
2026-05-07 18:07 36.87649 -76.21190 709 ft 101 kts 259°
2026-05-07 18:07 36.87541 -76.22053 709 ft 100 kts 261°
2026-05-07 18:08 36.87424 -76.22912 709 ft 100 kts 260°
2026-05-07 18:08 36.87299 -76.23770 712 ft 101 kts 259°
2026-05-07 18:08 36.87159 -76.24594 722 ft 87 kts 257°
2026-05-07 18:08 36.87017 -76.25250 715 ft 70 kts 256°
2026-05-07 18:09 36.86888 -76.25820 709 ft 68 kts 256°
2026-05-07 18:09 36.86768 -76.26386 712 ft 68 kts 256°
2026-05-07 18:09 36.86651 -76.26953 646 ft 67 kts 256°
2026-05-07 18:09 36.86537 -76.27515 614 ft 67 kts 256°
2026-05-07 18:10 36.86421 -76.28068 505 ft 63 kts 256°
2026-05-07 18:10 36.86312 -76.28551 451 ft 53 kts 256°
2026-05-07 18:10 36.86216 -76.28969 375 ft 47 kts 257°
2026-05-07 18:10 36.86146 -76.29354 312 ft 44 kts 259°
2026-05-07 18:11 36.86089 -76.29713 237 ft 38 kts 265°
2026-05-07 18:11 36.86096 -76.29994 204 ft 26 kts 282°
2026-05-07 18:11 36.86130 -76.30182 164 ft 19 kts 284°
2026-05-07 18:11 36.86152 -76.30289 124 ft 7 kts 287°
2026-05-07 18:12 36.86166 -76.30334 111 ft 2 kts 293°
2026-05-07 18:12 36.86170 -76.30343 107 ft 0 kts 289°
2026-05-07 20:47 36.86168 -76.30341 125 ft 0 kts 303°
2026-05-07 20:47 36.86176 -76.30340 243 ft 1 kts 243°
2026-05-07 20:47 36.86180 -76.30344 286 ft 2 kts 171°
2026-05-07 20:48 36.86175 -76.30355 393 ft 7 kts 181°
2026-05-07 20:48 36.85994 -76.30391 393 ft 49 kts 177°
2026-05-07 20:48 36.85494 -76.30392 433 ft 89 kts 168°
2026-05-07 20:49 36.84876 -76.30057 423 ft 103 kts 144°
2026-05-07 20:49 36.84313 -76.29486 612 ft 105 kts 142°
2026-05-07 20:49 36.83829 -76.28789 903 ft 110 kts 124°
2026-05-07 20:49 36.83429 -76.27961 1059 ft 111 kts 122°
2026-05-07 20:50 36.82992 -76.27153 1017 ft 119 kts 126°
2026-05-07 20:50 36.82466 -76.26277 1006 ft 132 kts 128°
2026-05-07 20:50 36.81893 -76.25384 1009 ft 130 kts 130°
2026-05-07 20:50 36.81311 -76.24521 1003 ft 130 kts 131°
2026-05-07 20:51 36.80715 -76.23675 1000 ft 130 kts 133°
2026-05-07 20:51 36.80106 -76.22838 1001 ft 130 kts 134°
2026-05-07 20:51 36.79494 -76.22012 1001 ft 129 kts 134°
2026-05-07 20:51 36.78878 -76.21195 999 ft 130 kts 135°
2026-05-07 20:52 36.78256 -76.20379 1000 ft 130 kts 134°
2026-05-07 20:52 36.77633 -76.19568 1001 ft 129 kts 135°
2026-05-07 20:52 36.77008 -76.18757 1001 ft 129 kts 135°
2026-05-07 20:52 36.76393 -76.17964 1000 ft 129 kts 135°
2026-05-07 20:53 36.75765 -76.17159 999 ft 129 kts 136°
2026-05-07 20:53 36.75137 -76.16355 999 ft 129 kts 135°
2026-05-07 20:53 36.74510 -76.15552 1000 ft 129 kts 136°
2026-05-07 20:53 36.73880 -76.14750 998 ft 130 kts 136°
2026-05-07 20:54 36.73249 -76.13946 1001 ft 129 kts 136°
2026-05-07 20:54 36.72618 -76.13142 999 ft 130 kts 135°
2026-05-07 20:54 36.71988 -76.12341 1000 ft 130 kts 135°
2026-05-07 20:54 36.71356 -76.11537 999 ft 130 kts 136°
2026-05-07 20:55 36.70722 -76.10733 1000 ft 130 kts 135°
2026-05-07 20:55 36.70090 -76.09928 1001 ft 130 kts 136°
2026-05-07 20:55 36.69458 -76.09124 998 ft 130 kts 136°
2026-05-07 20:55 36.68824 -76.08320 999 ft 130 kts 136°
2026-05-07 20:56 36.68197 -76.07524 1001 ft 130 kts 136°
2026-05-07 20:56 36.67556 -76.06711 998 ft 130 kts 136°
2026-05-07 20:56 36.66928 -76.05914 1001 ft 131 kts 135°
2026-05-07 20:56 36.66295 -76.05110 1001 ft 130 kts 136°
2026-05-07 20:57 36.65662 -76.04304 1001 ft 130 kts 136°
2026-05-07 20:57 36.65031 -76.03502 1000 ft 130 kts 136°
2026-05-07 20:57 36.64400 -76.02701 1000 ft 130 kts 136°
2026-05-07 20:57 36.63768 -76.01899 1000 ft 130 kts 136°
2026-05-07 20:58 36.63138 -76.01100 1000 ft 129 kts 136°
2026-05-07 20:58 36.62510 -76.00303 999 ft 129 kts 136°
2026-05-07 20:58 36.61878 -75.99502 1000 ft 129 kts 135°
2026-05-07 20:58 36.61246 -75.98704 999 ft 130 kts 136°
2026-05-07 20:59 36.60613 -75.97903 1000 ft 130 kts 136°
2026-05-07 20:59 36.59980 -75.97102 999 ft 129 kts 136°
2026-05-07 20:59 36.59356 -75.96313 1000 ft 130 kts 136°
2026-05-07 20:59 36.58725 -75.95514 1000 ft 129 kts 136°
2026-05-07 21:00 36.58092 -75.94714 1000 ft 130 kts 136°
2026-05-07 21:00 36.57461 -75.93916 1000 ft 129 kts 135°
2026-05-07 21:00 36.56828 -75.93116 999 ft 130 kts 136°
2026-05-07 21:00 36.56193 -75.92315 1000 ft 130 kts 136°
2026-05-07 21:01 36.55557 -75.91511 999 ft 130 kts 136°
2026-05-07 21:01 36.54948 -75.90732 1019 ft 115 kts 135°
2026-05-07 21:01 36.54487 -75.90076 906 ft 88 kts 133°
2026-05-07 21:01 36.54148 -75.89542 732 ft 71 kts 131°
2026-05-07 21:02 36.53870 -75.89098 560 ft 60 kts 131°
2026-05-07 21:02 36.53618 -75.88714 534 ft 59 kts 134°
2026-05-07 21:02 36.53320 -75.88316 480 ft 66 kts 136°
2026-05-07 21:02 36.52982 -75.87900 412 ft 70 kts 137°
2026-05-07 21:03 36.52660 -75.87507 349 ft 58 kts 139°
2026-05-07 21:03 36.52430 -75.87211 288 ft 39 kts 139°
2026-05-07 21:03 36.52292 -75.86958 199 ft 32 kts 126°
2026-05-07 21:03 36.52154 -75.86767 154 ft 28 kts 134°
2026-05-07 21:04 36.51963 -75.86681 149 ft 28 kts 148°
2026-05-07 21:04 36.51822 -75.86664 93 ft 12 kts 149°
2026-05-07 21:04 36.51759 -75.86631 71 ft 11 kts 148°
2026-05-07 21:04 36.51702 -75.86594 58 ft 9 kts 129°
2026-05-07 21:05 36.51662 -75.86547 24 ft 6 kts 105°
2026-05-07 21:05 36.51664 -75.86537 19 ft 0 kts 98°
2026-05-07 21:09 36.51667 -75.86539 61 ft 0 kts 121°
2026-05-07 21:09 36.51671 -75.86531 197 ft 1 kts 307°
2026-05-07 21:09 36.51725 -75.86622 227 ft 27 kts 302°
2026-05-07 21:09 36.51868 -75.86924 214 ft 53 kts 299°
2026-05-07 21:10 36.52099 -75.87342 242 ft 61 kts 305°
2026-05-07 21:10 36.52384 -75.87760 371 ft 66 kts 314°
2026-05-07 21:10 36.52730 -75.88147 479 ft 68 kts 315°
2026-05-07 21:10 36.53083 -75.88545 582 ft 69 kts 315°
2026-05-07 21:11 36.53442 -75.88954 750 ft 72 kts 315°
2026-05-07 21:11 36.53847 -75.89422 815 ft 87 kts 314°
2026-05-07 21:11 36.54824 -75.90580 812 ft 104 kts 314°
2026-05-07 21:12 36.55347 -75.91207 895 ft 105 kts 314°
2026-05-07 21:12 36.55867 -75.91842 891 ft 105 kts 314°
2026-05-07 21:12 36.56392 -75.92488 876 ft 112 kts 314°
2026-05-07 21:12 36.56774 -75.92955 874 ft 120 kts 314°
2026-05-07 21:13 36.57390 -75.93711 882 ft 125 kts 314°
2026-05-07 21:13 36.58198 -75.94717 880 ft 124 kts 314°
2026-05-07 21:13 36.58805 -75.95478 879 ft 124 kts 314°
2026-05-07 21:13 36.59216 -75.95994 880 ft 124 kts 313°
2026-05-07 21:14 36.59821 -75.96755 879 ft 124 kts 314°
2026-05-07 21:14 36.60428 -75.97518 880 ft 124 kts 313°
2026-05-07 21:14 36.61024 -75.98271 880 ft 123 kts 313°
2026-05-07 21:14 36.61628 -75.99033 881 ft 124 kts 313°
2026-05-07 21:15 36.62231 -75.99797 881 ft 123 kts 313°
2026-05-07 21:15 36.62832 -76.00559 878 ft 124 kts 313°
2026-05-07 21:15 36.63441 -76.01328 881 ft 124 kts 313°
2026-05-07 21:15 36.64043 -76.02093 879 ft 123 kts 313°
2026-05-07 21:16 36.64647 -76.02855 880 ft 124 kts 313°
2026-05-07 21:16 36.65249 -76.03618 879 ft 124 kts 313°
2026-05-07 21:16 36.65853 -76.04383 880 ft 123 kts 313°
2026-05-07 21:16 36.66454 -76.05144 878 ft 123 kts 313°
2026-05-07 21:17 36.67056 -76.05905 880 ft 123 kts 313°
2026-05-07 21:17 36.67657 -76.06666 878 ft 124 kts 314°
2026-05-07 21:17 36.68261 -76.07431 881 ft 124 kts 313°
2026-05-07 21:17 36.68864 -76.08193 879 ft 124 kts 313°
2026-05-07 21:18 36.69467 -76.08958 879 ft 124 kts 313°
2026-05-07 21:18 36.70063 -76.09714 880 ft 124 kts 313°
2026-05-07 21:18 36.70664 -76.10478 881 ft 123 kts 313°
2026-05-07 21:18 36.71265 -76.11241 879 ft 124 kts 313°
2026-05-07 21:19 36.71866 -76.12006 880 ft 123 kts 313°
2026-05-07 21:19 36.72470 -76.12773 880 ft 124 kts 313°
2026-05-07 21:19 36.73073 -76.13540 880 ft 124 kts 313°
2026-05-07 21:19 36.73676 -76.14308 879 ft 124 kts 313°
2026-05-07 21:20 36.74281 -76.15075 880 ft 124 kts 313°
2026-05-07 21:20 36.74885 -76.15845 880 ft 124 kts 313°
2026-05-07 21:20 36.75487 -76.16612 879 ft 124 kts 313°
2026-05-07 21:20 36.76091 -76.17380 879 ft 124 kts 314°
2026-05-07 21:21 36.76696 -76.18149 882 ft 124 kts 313°
2026-05-07 21:21 36.77288 -76.18905 881 ft 123 kts 313°
2026-05-07 21:21 36.77890 -76.19671 880 ft 124 kts 313°
2026-05-07 21:21 36.78493 -76.20439 879 ft 124 kts 313°
2026-05-07 21:22 36.79097 -76.21208 879 ft 124 kts 313°
2026-05-07 21:22 36.79700 -76.21975 879 ft 124 kts 313°
2026-05-07 21:22 36.80304 -76.22742 880 ft 124 kts 313°
2026-05-07 21:22 36.80892 -76.23497 892 ft 114 kts 312°
2026-05-07 21:23 36.81396 -76.24175 887 ft 101 kts 312°
2026-05-07 21:23 36.81838 -76.24804 885 ft 93 kts 310°
2026-05-07 21:23 36.82236 -76.25409 883 ft 88 kts 307°
2026-05-07 21:23 36.82616 -76.25995 882 ft 85 kts 308°
2026-05-07 21:24 36.83001 -76.26562 880 ft 86 kts 309°
2026-05-07 21:24 36.83400 -76.27119 880 ft 86 kts 311°
2026-05-07 21:24 36.83804 -76.27656 879 ft 81 kts 312°
2026-05-07 21:24 36.84177 -76.28138 841 ft 74 kts 313°
2026-05-07 21:25 36.84518 -76.28573 771 ft 68 kts 313°
2026-05-07 21:25 36.84834 -76.28982 658 ft 62 kts 312°
2026-05-07 21:25 36.85114 -76.29354 564 ft 57 kts 311°
2026-05-07 21:25 36.85385 -76.29700 458 ft 54 kts 314°
2026-05-07 21:26 36.85672 -76.29987 359 ft 47 kts 326°
2026-05-07 21:26 36.85903 -76.30151 287 ft 30 kts 331°
2026-05-07 21:26 36.86043 -76.30236 208 ft 16 kts 333°
2026-05-07 21:26 36.86112 -76.30284 175 ft 9 kts 323°
2026-05-07 21:27 36.86157 -76.30329 133 ft 6 kts 308°
2026-05-07 21:27 36.86169 -76.30344 107 ft 0 kts 295°